Volver al catálogo

FSKL5695-13

ActivoRadioaficionadoSSO
NORAD 64887·PAYLOAD·🇷🇺 Russia
Este nombre de satélite aún no ha sido confirmado por fuentes oficiales.

Lanzado Jul 25, 2025 desde Vostochny Cosmodrome

Loading…

Próximos Pases (próximas 24 horas)

TLE

ActualizadoSource: Space-Track

Época: Sep 14, 2026, 20:59 UTC

1 64887U 25155M   26257.87445185  .00035336  00000-0  80618-3 0  9991
2 64887  97.4595 229.9041 0006150 170.5846 189.5518 15.42796811 94693

Sigue FSKL5695-13 en tiempo real con AllMySat

Download on the App Store